Regional Weather Roundup
Issued by NWS

Home | Current Version | Previous Version | Text Only | Print | Product List | Glossary On
Versions: 1 2 3 4 5 6 7 8 9 10 11 12 13 14 15 16 17 18 19 20 21 22 23 24 25 26 27 28 29 30 31 32 33 34 35 36 37 38 39 40 41 42 43 44 45 46 47 48 49 50
000
ASUS42 KFFC 291610
RWRGA
WEATHER ROUNDUP FOR GEORGIA
NATIONAL WEATHER SERVICE PEACHTREE CITY GA
1200 PM EDT MON MAY 29 2017

NOTE: "FAIR" INDICATES FEW OR NO CLOUDS BELOW 12,000 FEET WITH NO
SIGNIFICANT WEATHER AND/OR OBSTRUCTIONS TO VISIBILITY.

* = USE WITH CAUTION. THE STATIONS MARKED WITH AN ASTERISK MAY NOT
REPORT WEATHER SUCH AS PRECIPITATION, FOG, OR THUNDER AND ARE NOT
QUALITY CONTROLLED BY NWS.

THE REMARK "TC" DENOTES TEMPERATURE READING IN DEGREES CELSIUS.

GAZ001>058-291700-
NORTH GEORGIA

CITY           SKY/WX    TMP DP  RH WIND       PRES   REMARKS
ATLANTA        PTSUNNY   81  66  60 W7        30.05R
ATHENS         SUNNY     83  67  58 W7        30.03R
CHAMBLEE       SUNNY     82  64  54 NW10G16   30.05R
PEACHTREE CITY SUNNY     82  67  60 W7        30.06R
ROME           CLOUDY    77  68  73 CALM      30.05R
WEST ATLANTA   SUNNY     81  67  62 W10       30.05R
GAINESVILLE    MOSUNNY   78  65  63 W8        30.08R
CARTERSVILLE   CLOUDY    77  68  73 CALM      30.06S


CITY           SKY/WX    TMP DP  RH WIND       PRES   REMARKS
DALTON*        CLOUDY    75  64  69 CALM      30.05S
LAWRENCEVILLE* MOSUNNY   79  66  65 SW9       30.06R
MARIETTA       PTSUNNY   80  66  61 NW8       30.05S
KENNESAW*      PTSUNNY   82  64  54 NW9       30.06S
CANTON*        CLOUDY    77  59  53 W3        30.08S
$$

GAZ059>098-102>109-291700-
CENTRAL GEORGIA

CITY           SKY/WX    TMP DP  RH WIND       PRES   REMARKS
AUGUSTA-BUSH   SUNNY     88  68  51 W8        30.00R HX  91
AUGUSTA-DANIEL SUNNY     86  63  45 SW7       30.02R
COLUMBUS       MOSUNNY   84  69  60 SW7       30.02F
MACON          SUNNY     86  67  52 W8        30.03S
ROBINS AFB     SUNNY     86  68  54 SW7       30.02F


CITY           SKY/WX    TMP DP  RH WIND       PRES   REMARKS
LAGRANGE*      MOSUNNY   83  72  69 NW8       30.04F
SYLVANIA*      SUNNY     88  70  55 W6        30.03R HX  92
MILLEDGEVILLE* SUNNY     84  70  61 W6        30.03S
$$

GAZ099>101-110>166-291700-
SOUTH GEORGIA

CITY           SKY/WX    TMP DP  RH WIND       PRES   REMARKS
SAVANNAH       MOSUNNY   89  66  46 NW6       30.02R HX  91
VALDOSTA       MOSUNNY   89  68  49 VRB3      30.06S HX  93
ALMA           SUNNY     89  67  47 SW8       30.04S HX  92
ST SIMONS      SUNNY     88  69  53 W7        30.04R HX  92
FT STEWART     SUNNY     88  68  51 SW5       30.01R HX  91
ALBANY         PTSUNNY   85  72  65 VRB7      30.07R HX  91
HUNTER AFB     SUNNY     87  74  63 CALM      30.00R HX  95
MOODY AFB      CLOUDY    87  69  55 SW6       30.04S HX  92
BRUNSWICK      SUNNY     88  73  62 W7        30.05R HX  96


CITY           SKY/WX    TMP DP  RH WIND       PRES   REMARKS
BAINBRIDGE*    CLOUDY    84  72  65 S12       30.05F
MOULTRIE*      MOSUNNY   88  70  55 SW7       30.06S HX  92
VIDALIA*       SUNNY     88  70  55 NW7       30.04S HX  92
WAYCROSS*      SUNNY     91  74  57 W3        30.05S HX  99
DOUGLAS*       MOSUNNY   88  66  48 SW3       30.06S HX  90
$$



USA.gov is the U.S. government's official web portal to all federal, state and local government web resources and services.